Location: Newark
(25.6108°S, 54.5803°W)
Time: 23:40:32
(UTC+00:00)

Tiros 1 - Pass Details

Date: 05 November 2020
Orbit: 630 x 664 km, 48.4° (Epoch: 29 November)

Event Time Altitude Azimuth Distance (km) Brightness Sun altitude
Rises 23:03:43 0° 228° (SW) 3,014 12.2 -14.6°
Reaches altitude 10° 23:06:06 10° 230° (SW) 2,096 11.1 -15.1°
Maximum altitude 23:10:55 71° 313° (NW) 704 7.3 -16.1°
Enters shadow 23:13:39 25° 32° (NNE) 1,319 8.2 -16.6°
Drops below altitude 10° 23:15:41 10° 37° (NE) 2,066 - -17.0°
Sets 23:18:00 0° 39° (NE) 2,967 - -17.5°
